Time,TemperatureF,DewpointF,PressureIn,WindDirection,WindDirectionDegrees,WindSpeedMPH,WindSpeedGustMPH,Humidity,HourlyPrecipIn,Conditions,Clouds,dailyrainin,SoftwareType,DateUTC
2013-09-18 00:01:00,42.0,34.0,-100.00,North,-999,-999.0,-999.0,73,-99.99,,,-99.99,,2013-09-18 07:01:00,
2013-09-18 00:42:00,41.0,35.0,-100.00,North,-999,-999.0,-999.0,77,-99.99,,,-99.99,,2013-09-18 07:42:00,
2013-09-18 00:50:00,38.0,-99.9,-100.00,North,-999,-999.0,-999.0,-999,-99.99,,,-99.99,,2013-09-18 07:50:00,
2013-09-18 01:02:00,39.0,-99.9,-100.00,North,-999,-999.0,-999.0,86,-99.99,,,-99.99,,2013-09-18 08:02:00,
2013-09-18 01:23:00,38.0,-99.9,-100.00,North,-999,-999.0,-999.0,-999,-99.99,,,-99.99,,2013-09-18 08:23:00,
2013-09-18 01:32:00,38.0,-99.9,-100.00,North,-999,-999.0,-999.0,-999,-99.99,,,-99.99,,2013-09-18 08:32:00,
2013-09-18 01:42:00,38.0,-99.9,-100.00,North,-999,-999.0,-999.0,-999,-99.99,,,-99.99,,2013-09-18 08:42:00,
2013-09-18 03:23:00,35.0,28.0,-100.00,North,-999,-999.0,-999.0,75,-99.99,,,-99.99,,2013-09-18 10:23:00,
2013-09-18 03:33:00,35.0,28.0,-100.00,North,-999,-999.0,-999.0,75,-99.99,,,-99.99,,2013-09-18 10:33:00,
2013-09-18 03:42:00,35.0,33.0,-100.00,North,-999,-999.0,-999.0,91,-99.99,,,-99.99,,2013-09-18 10:42:00,
2013-09-18 04:12:00,35.0,33.0,-100.00,North,-999,-999.0,-999.0,93,-99.99,,,-99.99,,2013-09-18 11:12:00,
2013-09-18 04:22:00,34.0,33.0,-100.00,North,-999,-999.0,-999.0,80,-99.99,,,-99.99,,2013-09-18 11:22:00,
2013-09-18 04:42:00,36.0,33.0,-100.00,North,-999,-999.0,-999.0,90,-99.99,,,-99.99,,2013-09-18 11:42:00,
2013-09-18 04:52:00,36.0,33.0,-100.00,North,-999,-999.0,-999.0,90,-99.99,,,-99.99,,2013-09-18 11:52:00,
2013-09-18 05:01:00,36.0,33.0,-100.00,North,-999,-999.0,-999.0,90,-99.99,,,-99.99,,2013-09-18 12:01:00,
2013-09-18 05:12:00,36.0,33.0,-100.00,North,-999,-999.0,-999.0,90,-99.99,,,-99.99,,2013-09-18 12:12:00,
2013-09-18 05:22:00,36.0,30.0,-100.00,North,-999,-999.0,-999.0,78,-99.99,,,-99.99,,2013-09-18 12:22:00,
2013-09-18 05:42:00,36.0,28.0,-100.00,SSW,210,0.0,-999.0,73,-99.99,,,-99.99,,2013-09-18 12:42:00,
2013-09-18 05:52:00,36.0,28.0,-100.00,SSW,210,0.0,-999.0,73,-99.99,,,-99.99,,2013-09-18 12:52:00,
2013-09-18 21:01:00,-999.0,-99.9,-100.00,North,10,1.0,-999.0,-999,-99.99,,,-99.99,,2013-09-19 04:01:00,
2013-09-18 21:43:00,55.0,33.0,-100.00,North,-999,-999.0,-999.0,43,-99.99,,,-99.99,,2013-09-19 04:43:00,
2013-09-18 21:54:00,54.0,34.0,-100.00,North,-999,-999.0,-999.0,46,-99.99,,,-99.99,,2013-09-19 04:54:00,
2013-09-18 22:13:00,54.0,-99.9,-100.00,North,-999,-999.0,-999.0,-999,-99.99,,,-99.99,,2013-09-19 05:13:00,
2013-09-18 22:34:00,54.0,-99.9,-100.00,WSW,250,0.0,-999.0,-999,-99.99,,,-99.99,,2013-09-19 05:34:00,
2013-09-18 23:43:00,51.0,32.0,-100.00,North,-999,-999.0,-999.0,48,-99.99,,,-99.99,,2013-09-19 06:43:00,
2013-09-18 23:52:00,51.0,32.0,-100.00,North,-999,-999.0,-999.0,48,-99.99,,,-99.99,,2013-09-19 06:52:00,